Location: Chantarel
(45.1638°N, 1.7873°E)
Time: 19:37:19
(UTC+00:00)

Cosmos 1500 - Pass Details

Date: 03 March 2021
Orbit: 499 x 517 km, 82.5° (Epoch: 13 April)

Event Time Altitude Azimuth Distance (km) Brightness Sun altitude
Rises 18:46:33 0° 179° (S) 2,579 6.7 -12.0°
Reaches altitude 10° 18:48:40 10° 176° (S) 1,699 5.8 -12.4°
Maximum altitude 18:52:20 62° 96° (E) 565 3.1 -13.0°
Drops below altitude 10° 18:56:03 10° 15° (NNE) 1,714 5.7 -13.7°
Sets 18:58:11 0° 12° (NNE) 2,604 6.7 -14.0°
